Meteo Giornale » Osservazioni meteo Italia » Ronchi Dei Legionari

ore: 00:50 - Osservazioni Meteo Ronchi Dei Legionari
Lat. 45° 49' N Lon. 13° 29' E Alt. 12 metri s.l.m.

nebbia Europe/Rome

10 °C

Cielo Invisibile

Temp. 24 Ore

6 °C

21 °C

Nord

3.7 Km/h

Dew point 10 °C

Umidità 100 %

Visibilità  10 Km

Il sole sorge alle ore 06:52

Il sole tramonta alle ore 19:04

Data e Ora Cielo e Fenomeni T °C DP °C Um. % Pres. hPa Vis. km Vento km/h
Oggi h: 00:50 nebbia Cielo Invisibile 10 10 100 1019 10 N 3.7
Oggi h: 00:20 nebbia Cielo Invisibile 10 10 100 1019 10 N 3.7
Ieri h: 23:50 sereno Sereno 11 10 93 1019 10 N 3.7
Ieri h: 23:20 sereno Sereno 11 10 93 1019 10 N 5.5
Ieri h: 22:50 sereno Sereno 12 11 93 1019 10 N 5.5
Ieri h: 22:20 sereno Sereno 11 10 93 1019 10 N 3.7
Ieri h: 21:50 sereno Sereno 13 11 87 1018 10 E 7.4
Ieri h: 21:20 sereno Sereno 14 12 87 1018 10 E 7.4
Ieri h: 20:50 sereno Sereno 14 11 82 1018 10 N 3.7
Ieri h: 20:20 sereno Sereno 15 12 82 1018 10 E/SE 7.4
Ieri h: 19:50 sereno Sereno 16 13 82 1018 10 N 1.8
Ieri h: 19:20 sereno Sereno 18 13 72 1018 10 N 5.5
Ieri h: 18:50 sereno Sereno 19 13 68 1018 10 N 5.5
Ieri h: 18:20 sereno Sereno 20 13 64 1018 10 S/SO 9.3
Ieri h: 17:50 sereno Sereno 20 12 59 1018 10 SO 9.3
Ieri h: 17:20 sereno Sereno 20 11 56 1018 10 S/SO 13
Ieri h: 16:50 sereno Sereno 21 11 52 1018 10 O/SO 13
Ieri h: 16:20 sereno Sereno 21 11 52 1018 10 SO 13
Ieri h: 15:50 sereno Sereno 21 11 52 1018 10 SO 13
Ieri h: 15:20 sereno Sereno 21 11 52 1018 10 SO 14.8
Ieri h: 14:50 poco_nuvoloso Poco Nuvoloso 21 12 56 1018 10 SO 14.8
Ieri h: 14:20 poco_nuvoloso Poco Nuvoloso 21 12 56 1018 10 SO 14.8
Ieri h: 13:50 poco_nuvoloso Poco Nuvoloso 21 11 52 1018 10 SO 9.3
Ieri h: 13:20 sereno Sereno 21 10 49 1018 10 N 7.4
Ieri h: 12:50 sereno Sereno 20 9 49 1019 10 N 5.5
Ieri h: 12:20 sereno Sereno 20 8 45 1019 10 N 3.7
Ieri h: 11:50 sereno Sereno 20 7 42 1019 10 N 3.7
Ieri h: 11:20 sereno Sereno 19 7 45 1019 10 N 3.7
Ieri h: 10:50 sereno Sereno 18 10 59 1019 10 N 3.7
Ieri h: 10:20 sereno Sereno 17 10 63 1019 10 N 5.5
Ieri h: 09:50 sereno Sereno 15 10 72 1019 10 N 3.7
Ieri h: 09:20 sereno Sereno 13 9 76 1019 10 N 3.7
Ieri h: 08:50 sereno Sereno 11 8 81 1018 10 N 3.7
Ieri h: 08:20 sereno Sereno 10 7 81 1018 10 N 1.8
Ieri h: 07:50 sereno Sereno 8 7 93 1018 10 N 3.7
Ieri h: 07:20 sereno Sereno 6 5 93 1018 10 N/NO 7.4
Ieri h: 06:50 sereno Sereno 6 6 100 1018 10 N 5.5
Ieri h: 06:20 sereno Sereno 6 6 100 1018 10 N 5.5
Ieri h: 05:50 nebbia Banco di Nebbia 6 6 100 1018 1 N 3.7
Ieri h: 05:20 sereno Sereno 7 6 93 1018 10 N 1.8
Ieri h: 04:50 sereno Sereno 7 7 100 1018 10 N 3.7
Ieri h: 04:20 sereno Sereno 7 7 100 1018 10 N 5.5
Ieri h: 03:50 sereno Sereno 8 7 93 1018 10 N/NE 7.4
Ieri h: 03:20 sereno Sereno 8 8 100 1018 10 N 3.7
Ieri h: 02:50 sereno Sereno 8 8 100 1018 10 N/NO 9.3
Ieri h: 02:20 sereno Sereno 8 7 93 1018 10 N 3.7
Ieri h: 01:50 sereno Sereno 9 8 93 1018 10 N 1.8